Year,Month,Day,Hour,Minute,Value (Times are PST for temperature in C)
2015,05,22,00,00,14.40
2015,05,22,00,01,14.40
2015,05,22,00,02,14.30
2015,05,22,00,03,14.30
2015,05,22,00,04,14.30
2015,05,22,00,05,14.30
2015,05,22,00,06,14.30
2015,05,22,00,07,14.30
2015,05,22,00,08,14.30
2015,05,22,00,09,14.20
2015,05,22,00,10,14.20
2015,05,22,00,11,14.20
2015,05,22,00,12,14.20
2015,05,22,00,13,14.20
2015,05,22,00,14,14.10
2015,05,22,00,15,14.10
2015,05,22,00,16,14.10
2015,05,22,00,17,14.10
2015,05,22,00,18,14.00
2015,05,22,00,19,14.00
2015,05,22,00,20,14.00
2015,05,22,00,21,13.90
2015,05,22,00,22,13.90
2015,05,22,00,23,13.90
2015,05,22,00,24,13.90
2015,05,22,00,25,13.90
2015,05,22,00,26,13.90
2015,05,22,00,27,13.80
2015,05,22,00,28,13.80
2015,05,22,00,29,13.80
2015,05,22,00,30,13.80
2015,05,22,00,31,13.80
2015,05,22,00,32,13.80
2015,05,22,00,33,13.70
2015,05,22,00,34,13.70
2015,05,22,00,35,13.70
2015,05,22,00,36,13.60
2015,05,22,00,37,13.60
2015,05,22,00,38,13.60
2015,05,22,00,39,13.60
2015,05,22,00,40,13.50
2015,05,22,00,41,13.50
2015,05,22,00,42,13.50
2015,05,22,00,43,13.50
2015,05,22,00,44,13.40
2015,05,22,00,45,13.40
2015,05,22,00,46,13.40
2015,05,22,00,47,13.40
2015,05,22,00,48,13.40
2015,05,22,00,49,13.30
2015,05,22,00,50,13.30
2015,05,22,00,51,13.30
2015,05,22,00,52,13.30
2015,05,22,00,53,13.30
2015,05,22,00,54,13.30
2015,05,22,00,55,13.20
2015,05,22,00,56,13.20
2015,05,22,00,57,13.20
2015,05,22,00,58,13.20
2015,05,22,00,59,13.20
2015,05,22,01,00,13.20
2015,05,22,01,01,13.20
2015,05,22,01,02,13.10
2015,05,22,01,03,13.10
2015,05,22,01,04,13.10
2015,05,22,01,05,13.10
2015,05,22,01,06,13.10
2015,05,22,01,07,13.10
2015,05,22,01,08,13.00
2015,05,22,01,09,13.00
2015,05,22,01,10,13.00
2015,05,22,01,11,13.00
2015,05,22,01,12,12.90
2015,05,22,01,13,12.90
2015,05,22,01,14,12.90
2015,05,22,01,15,12.90
2015,05,22,01,16,12.90
2015,05,22,01,17,12.90
2015,05,22,01,18,12.90
2015,05,22,01,19,12.90
2015,05,22,01,20,12.90
2015,05,22,01,21,12.90
2015,05,22,01,22,12.90
2015,05,22,01,23,12.90
2015,05,22,01,24,12.90
2015,05,22,01,25,12.80
2015,05,22,01,26,12.80
2015,05,22,01,27,12.80
2015,05,22,01,28,12.80
2015,05,22,01,29,12.80
2015,05,22,01,30,12.80
2015,05,22,01,31,12.80
2015,05,22,01,32,12.80
2015,05,22,01,33,12.70
2015,05,22,01,34,12.70
2015,05,22,01,35,12.70
2015,05,22,01,36,12.70
2015,05,22,01,37,12.70
2015,05,22,01,38,12.70
2015,05,22,01,39,12.70
2015,05,22,01,40,12.70
2015,05,22,01,41,12.70
2015,05,22,01,42,12.60
2015,05,22,01,43,12.60
2015,05,22,01,44,12.60
2015,05,22,01,45,12.60
2015,05,22,01,46,12.60
2015,05,22,01,47,12.60
2015,05,22,01,48,12.60
2015,05,22,01,49,12.60
2015,05,22,01,50,12.60
2015,05,22,01,51,12.50
2015,05,22,01,52,12.50
2015,05,22,01,53,12.50
2015,05,22,01,54,12.50
2015,05,22,01,55,12.50
2015,05,22,01,56,12.50
2015,05,22,01,57,12.50
2015,05,22,01,58,12.50
2015,05,22,01,59,12.40
2015,05,22,02,00,12.40
2015,05,22,02,01,12.40
2015,05,22,02,02,12.40
2015,05,22,02,03,12.40
2015,05,22,02,04,12.40
2015,05,22,02,05,12.40
2015,05,22,02,06,12.30
2015,05,22,02,07,12.30
2015,05,22,02,08,12.30
2015,05,22,02,09,12.30
2015,05,22,02,10,12.20
2015,05,22,02,11,12.20
2015,05,22,02,12,12.20
2015,05,22,02,13,12.20
2015,05,22,02,14,12.20
2015,05,22,02,15,12.20
2015,05,22,02,16,12.20
2015,05,22,02,17,12.20
2015,05,22,02,18,12.20
2015,05,22,02,19,12.20
2015,05,22,02,20,12.10
2015,05,22,02,21,12.10
2015,05,22,02,22,12.10
2015,05,22,02,23,12.10
2015,05,22,02,24,12.10
2015,05,22,02,25,12.10
2015,05,22,02,26,12.10
2015,05,22,02,27,12.10
2015,05,22,02,28,12.10
2015,05,22,02,29,12.10
2015,05,22,02,30,12.10
2015,05,22,02,31,12.10
2015,05,22,02,32,12.10
2015,05,22,02,33,12.10
2015,05,22,02,34,12.10
2015,05,22,02,35,12.10
2015,05,22,02,36,12.10
2015,05,22,02,37,12.10
2015,05,22,02,38,12.00
2015,05,22,02,39,12.00
2015,05,22,02,40,12.00
2015,05,22,02,41,12.00
2015,05,22,02,42,11.90
2015,05,22,02,43,11.90
2015,05,22,02,44,11.90
2015,05,22,02,45,11.90
2015,05,22,02,46,11.90
2015,05,22,02,47,11.90
2015,05,22,02,48,11.90
2015,05,22,02,49,11.90
2015,05,22,02,50,11.90
2015,05,22,02,51,11.90
2015,05,22,02,52,11.90
2015,05,22,02,53,11.90
2015,05,22,02,54,11.90
2015,05,22,02,55,11.90
2015,05,22,02,56,11.90
2015,05,22,02,57,11.90
2015,05,22,02,58,11.90
2015,05,22,02,59,11.90
2015,05,22,03,00,11.90
2015,05,22,03,01,11.90
2015,05,22,03,02,11.90
2015,05,22,03,03,11.90
2015,05,22,03,04,11.90
2015,05,22,03,05,11.90
2015,05,22,03,06,11.90
2015,05,22,03,07,11.90
2015,05,22,03,08,11.90
2015,05,22,03,09,11.90
2015,05,22,03,10,11.90
2015,05,22,03,11,11.80
2015,05,22,03,12,11.80
2015,05,22,03,13,11.80
2015,05,22,03,14,11.80
2015,05,22,03,15,11.80
2015,05,22,03,16,11.80
2015,05,22,03,17,11.80
2015,05,22,03,18,11.70
2015,05,22,03,19,11.70
2015,05,22,03,20,11.70
2015,05,22,03,21,11.70
2015,05,22,03,22,11.70
2015,05,22,03,23,11.70
2015,05,22,03,24,11.70
2015,05,22,03,25,11.70
2015,05,22,03,26,11.60
2015,05,22,03,27,11.60
2015,05,22,03,28,11.60
2015,05,22,03,29,11.60
2015,05,22,03,30,11.60
2015,05,22,03,31,11.60
2015,05,22,03,32,11.60
2015,05,22,03,33,11.50
2015,05,22,03,34,11.50
2015,05,22,03,35,11.50
2015,05,22,03,36,11.50
2015,05,22,03,37,11.50
2015,05,22,03,38,11.50
2015,05,22,03,39,11.40
2015,05,22,03,40,11.40
2015,05,22,03,41,11.40
2015,05,22,03,42,11.40
2015,05,22,03,43,11.40
2015,05,22,03,44,11.40
2015,05,22,03,45,11.40
2015,05,22,03,46,11.40
2015,05,22,03,47,11.40
2015,05,22,03,48,11.40
2015,05,22,03,49,11.40
2015,05,22,03,50,11.40
2015,05,22,03,51,11.40
2015,05,22,03,52,11.30
2015,05,22,03,53,11.40
2015,05,22,03,54,11.30
2015,05,22,03,55,11.30
2015,05,22,03,56,11.30
2015,05,22,03,57,11.30
2015,05,22,03,58,11.30
2015,05,22,03,59,11.30
2015,05,22,04,00,11.30
2015,05,22,04,01,11.30
2015,05,22,04,02,11.40
2015,05,22,04,03,11.40
2015,05,22,05,02,10.90
2015,05,22,05,03,10.90
2015,05,22,05,04,10.90
2015,05,22,05,05,10.90
2015,05,22,05,06,10.90
2015,05,22,05,07,10.90
2015,05,22,05,08,10.90
2015,05,22,05,09,10.90
2015,05,22,05,10,10.90
2015,05,22,05,11,10.90
2015,05,22,05,12,10.80
2015,05,22,05,13,10.80
2015,05,22,05,14,10.80
2015,05,22,05,15,10.80
2015,05,22,05,16,10.80
2015,05,22,05,17,10.80
2015,05,22,05,18,10.80
2015,05,22,05,19,10.80
2015,05,22,05,20,10.70
2015,05,22,05,21,10.70
2015,05,22,05,22,10.70
2015,05,22,05,23,10.70
2015,05,22,05,24,10.70
2015,05,22,05,25,10.70
2015,05,22,05,26,10.70
2015,05,22,05,27,10.70
2015,05,22,05,28,10.70
2015,05,22,05,29,10.70
2015,05,22,05,30,10.70
2015,05,22,05,31,10.60
2015,05,22,05,32,10.60
2015,05,22,05,33,10.60
2015,05,22,05,34,10.60
2015,05,22,05,35,10.60
2015,05,22,05,36,10.60
2015,05,22,05,37,10.60
2015,05,22,05,38,10.60
2015,05,22,05,39,10.60
2015,05,22,05,40,10.60
2015,05,22,05,41,10.60
2015,05,22,05,42,10.60
2015,05,22,05,43,10.60
2015,05,22,05,44,10.60
2015,05,22,05,45,10.60
2015,05,22,05,46,10.60
2015,05,22,05,47,10.60
2015,05,22,05,48,10.60
2015,05,22,05,49,10.70
2015,05,22,05,50,10.70
2015,05,22,05,51,10.70
2015,05,22,05,52,10.60
2015,05,22,05,53,10.60
2015,05,22,05,54,10.60
2015,05,22,05,55,10.70
2015,05,22,05,56,10.60
2015,05,22,05,57,10.60
2015,05,22,05,58,10.60
2015,05,22,05,59,10.70
2015,05,22,06,00,10.70
2015,05,22,06,01,10.70
2015,05,22,06,02,10.70
2015,05,22,06,03,10.70
2015,05,22,06,04,10.70
2015,05,22,06,05,10.70
2015,05,22,06,06,10.70
2015,05,22,06,07,10.70
2015,05,22,06,08,10.70
2015,05,22,06,09,10.70
2015,05,22,06,10,10.70
2015,05,22,06,11,10.80
2015,05,22,06,12,10.80
2015,05,22,06,13,10.80
2015,05,22,06,14,10.80
2015,05,22,06,15,10.80
2015,05,22,06,16,10.80
2015,05,22,06,17,10.80
2015,05,22,06,18,10.80
2015,05,22,06,19,10.80
2015,05,22,06,20,10.80
2015,05,22,06,21,10.80
2015,05,22,06,22,10.80
2015,05,22,06,23,10.90
2015,05,22,06,24,10.90
2015,05,22,06,25,10.90
2015,05,22,06,26,10.90
2015,05,22,06,27,10.90
2015,05,22,06,28,10.90
2015,05,22,06,29,11.00
2015,05,22,06,30,11.00
2015,05,22,06,31,11.00
2015,05,22,06,32,11.00
2015,05,22,06,33,11.00
2015,05,22,06,34,11.00
2015,05,22,06,35,11.00
2015,05,22,06,36,11.10
2015,05,22,06,37,11.10
2015,05,22,06,38,11.10
2015,05,22,06,39,11.10
2015,05,22,06,40,11.10
2015,05,22,06,41,11.10
2015,05,22,06,42,11.10
2015,05,22,06,43,11.10
2015,05,22,06,44,11.10
2015,05,22,06,45,11.10
2015,05,22,06,46,11.10
2015,05,22,06,47,11.20
2015,05,22,06,48,11.20
2015,05,22,06,49,11.20
2015,05,22,06,50,11.20
2015,05,22,06,51,11.20
2015,05,22,06,52,11.20
2015,05,22,06,53,11.20
2015,05,22,06,54,11.20
2015,05,22,06,55,11.20
2015,05,22,06,56,11.20
2015,05,22,06,57,11.20
2015,05,22,06,58,11.20
2015,05,22,06,59,11.20
2015,05,22,07,00,11.20
2015,05,22,07,01,11.20
2015,05,22,07,02,11.30
2015,05,22,07,03,11.30
2015,05,22,07,04,11.30
2015,05,22,07,05,11.30
2015,05,22,07,06,11.30
2015,05,22,07,07,11.30
2015,05,22,07,08,11.30
2015,05,22,07,09,11.30
2015,05,22,07,10,11.30
2015,05,22,07,11,11.30
2015,05,22,07,12,11.30
2015,05,22,07,13,11.30
2015,05,22,07,14,11.40
2015,05,22,07,15,11.40
2015,05,22,07,16,11.40
2015,05,22,07,17,11.40
2015,05,22,07,18,11.50
2015,05,22,07,19,11.50
2015,05,22,07,20,11.50
2015,05,22,07,21,11.60
2015,05,22,07,22,11.60
2015,05,22,07,23,11.60
2015,05,22,07,24,11.60
2015,05,22,07,25,11.60
2015,05,22,07,26,11.60
2015,05,22,07,27,11.70
2015,05,22,07,28,11.70
2015,05,22,07,29,11.70
2015,05,22,07,30,11.80
2015,05,22,07,31,11.80
2015,05,22,07,32,11.90
2015,05,22,07,33,11.90
2015,05,22,07,34,12.00
2015,05,22,07,35,12.00
2015,05,22,07,36,12.10
2015,05,22,07,37,12.10
2015,05,22,07,38,12.10
2015,05,22,07,39,12.10
2015,05,22,07,40,12.10
2015,05,22,07,41,12.20
2015,05,22,07,42,12.20
2015,05,22,07,43,12.30
2015,05,22,07,44,12.30
2015,05,22,07,45,12.40
2015,05,22,07,46,12.40
2015,05,22,07,47,12.50
2015,05,22,07,48,12.50
2015,05,22,07,49,12.60
2015,05,22,07,50,12.60
2015,05,22,07,51,12.70
2015,05,22,07,52,12.80
2015,05,22,07,53,12.80
2015,05,22,07,54,12.90
2015,05,22,07,55,12.90
2015,05,22,07,56,13.00
2015,05,22,07,57,13.00
2015,05,22,07,58,13.10
2015,05,22,07,59,13.10
2015,05,22,08,00,13.10
2015,05,22,08,01,13.20
2015,05,22,08,02,13.30
2015,05,22,08,03,13.30
2015,05,22,08,04,13.40
2015,05,22,08,05,13.40
2015,05,22,08,06,13.40
2015,05,22,08,07,13.50
2015,05,22,08,08,13.60
2015,05,22,08,09,13.70
2015,05,22,08,10,13.70
2015,05,22,08,11,13.70
2015,05,22,08,12,13.80
2015,05,22,08,13,13.80
2015,05,22,08,14,13.90
2015,05,22,08,15,13.90
2015,05,22,08,16,13.90
2015,05,22,08,17,13.90
2015,05,22,08,18,13.90
2015,05,22,08,19,13.90
2015,05,22,08,20,13.80
2015,05,22,08,21,13.80
2015,05,22,08,22,13.80
2015,05,22,08,23,13.80
2015,05,22,08,24,13.90
2015,05,22,08,25,14.00
2015,05,22,08,26,14.00
2015,05,22,08,27,14.10
2015,05,22,08,28,14.00
2015,05,22,08,29,13.90
2015,05,22,08,30,13.90
2015,05,22,08,31,13.90
2015,05,22,08,32,13.90
2015,05,22,08,33,14.00
2015,05,22,08,34,14.10
2015,05,22,08,35,14.10
2015,05,22,08,36,14.20
2015,05,22,08,37,14.20
2015,05,22,08,38,14.30
2015,05,22,08,39,14.30
2015,05,22,08,40,14.40
2015,05,22,08,41,14.40
2015,05,22,08,42,14.40
2015,05,22,08,43,14.30
2015,05,22,08,44,14.30
2015,05,22,08,45,14.40
2015,05,22,08,46,14.40
2015,05,22,08,47,14.50
2015,05,22,08,48,14.50
2015,05,22,08,49,14.60
2015,05,22,08,50,14.60
2015,05,22,08,51,14.60
2015,05,22,08,52,14.60
2015,05,22,08,53,14.70
2015,05,22,08,54,14.70
2015,05,22,08,55,14.70
2015,05,22,08,56,14.80
2015,05,22,08,57,14.80
2015,05,22,08,58,14.80
2015,05,22,08,59,14.80
2015,05,22,09,00,14.70
2015,05,22,09,01,14.80
2015,05,22,09,02,14.80
2015,05,22,09,03,14.80
2015,05,22,09,04,14.90
2015,05,22,09,05,15.00
2015,05,22,09,06,15.00
2015,05,22,09,07,15.10
2015,05,22,09,08,15.10
2015,05,22,09,09,15.00
2015,05,22,09,10,15.00
2015,05,22,09,11,15.10
2015,05,22,09,12,15.10
2015,05,22,09,13,15.10
2015,05,22,09,14,15.20
2015,05,22,09,15,15.20
2015,05,22,09,16,15.30
2015,05,22,09,17,15.30
2015,05,22,09,18,15.40
2015,05,22,09,19,15.40
2015,05,22,09,20,15.50
2015,05,22,09,21,15.50
2015,05,22,09,22,15.60
2015,05,22,09,23,15.50
2015,05,22,09,24,15.50
2015,05,22,09,25,15.50
2015,05,22,09,26,15.50
2015,05,22,09,27,15.50
2015,05,22,09,28,15.50
2015,05,22,09,29,15.60
2015,05,22,09,30,15.60
2015,05,22,09,31,15.60
2015,05,22,09,32,15.50
2015,05,22,09,33,15.40
2015,05,22,09,34,15.50
2015,05,22,09,35,15.50
2015,05,22,09,36,15.50
2015,05,22,09,37,15.40
2015,05,22,09,38,15.40
2015,05,22,09,39,15.40
2015,05,22,09,40,15.30
2015,05,22,09,41,15.30
2015,05,22,09,42,15.30
2015,05,22,09,43,15.30
2015,05,22,09,44,15.30
2015,05,22,09,45,15.30
2015,05,22,09,46,15.30
2015,05,22,09,47,15.40
2015,05,22,09,48,15.50
2015,05,22,09,49,15.50
2015,05,22,09,50,15.50
2015,05,22,09,51,15.50
2015,05,22,09,52,15.50
2015,05,22,09,53,15.50
2015,05,22,09,54,15.40
2015,05,22,09,55,15.30
2015,05,22,09,56,15.30
2015,05,22,09,57,15.30
2015,05,22,09,58,15.30
2015,05,22,09,59,15.30
2015,05,22,10,00,15.20
2015,05,22,10,01,15.20
2015,05,22,10,02,15.10
2015,05,22,10,03,15.10
2015,05,22,10,04,15.10
2015,05,22,10,05,15.20
2015,05,22,10,06,15.20
2015,05,22,10,07,15.30
2015,05,22,10,08,15.40
2015,05,22,10,09,15.50
2015,05,22,10,10,15.60
2015,05,22,10,11,15.60
2015,05,22,10,12,15.60
2015,05,22,10,13,15.50
2015,05,22,10,14,15.50
2015,05,22,10,15,15.50
2015,05,22,10,16,15.50
2015,05,22,10,17,15.50
2015,05,22,10,18,15.40
2015,05,22,10,19,15.40
2015,05,22,10,20,15.40
2015,05,22,10,21,15.40
2015,05,22,10,22,15.30
2015,05,22,10,23,15.30
2015,05,22,10,24,15.30
2015,05,22,10,25,15.30
2015,05,22,10,26,15.30
2015,05,22,10,27,15.30
2015,05,22,10,28,15.40
2015,05,22,10,29,15.50
2015,05,22,10,30,15.50
2015,05,22,10,31,15.60
2015,05,22,10,32,15.70
2015,05,22,10,33,15.80
2015,05,22,10,34,15.80
2015,05,22,10,35,15.70
2015,05,22,10,36,15.70
2015,05,22,10,37,15.60
2015,05,22,10,38,15.60
2015,05,22,10,39,15.50
2015,05,22,10,40,15.50
2015,05,22,10,41,15.50
2015,05,22,10,42,15.50
2015,05,22,10,43,15.50
2015,05,22,10,44,15.50
2015,05,22,10,45,15.40
2015,05,22,10,46,15.40
2015,05,22,10,47,15.40
2015,05,22,10,48,15.40
2015,05,22,10,49,15.50
2015,05,22,10,50,15.50
2015,05,22,10,51,15.60
2015,05,22,10,52,15.70
2015,05,22,10,53,15.70
2015,05,22,10,54,15.70
2015,05,22,10,55,15.70
2015,05,22,10,56,15.70
2015,05,22,10,57,15.70
2015,05,22,10,58,15.80
2015,05,22,10,59,15.80
2015,05,22,11,00,15.80
2015,05,22,11,01,15.80
2015,05,22,11,02,15.80
2015,05,22,11,03,15.80
2015,05,22,11,04,15.90
2015,05,22,11,05,16.00
2015,05,22,11,06,16.10
2015,05,22,11,07,16.10
2015,05,22,11,08,16.10
2015,05,22,11,09,16.20
2015,05,22,11,10,16.30
2015,05,22,11,11,16.30
2015,05,22,11,12,16.30
2015,05,22,11,13,16.40
2015,05,22,11,14,16.40
2015,05,22,11,15,16.40
2015,05,22,11,16,16.40
2015,05,22,11,17,16.40
2015,05,22,11,18,16.50
2015,05,22,11,19,16.50
2015,05,22,11,20,16.60
2015,05,22,11,21,16.50
2015,05,22,11,22,16.50
2015,05,22,11,23,16.40
2015,05,22,11,24,16.40
2015,05,22,11,25,16.50
2015,05,22,11,26,16.50
2015,05,22,11,27,16.60
2015,05,22,11,28,16.70
2015,05,22,11,29,16.70
2015,05,22,11,30,16.70
2015,05,22,11,31,16.60
2015,05,22,11,32,16.60
2015,05,22,11,33,16.60
2015,05,22,11,34,16.60
2015,05,22,11,35,16.70
2015,05,22,11,36,16.70
2015,05,22,11,37,16.80
2015,05,22,11,38,16.80
2015,05,22,11,39,16.80
2015,05,22,11,40,16.90
2015,05,22,11,41,16.90
2015,05,22,11,42,16.90
2015,05,22,11,43,16.90
2015,05,22,11,44,16.90
2015,05,22,11,45,17.00
2015,05,22,11,46,17.00
2015,05,22,11,47,17.10
2015,05,22,11,48,17.10
2015,05,22,11,49,17.10
2015,05,22,11,50,17.20
2015,05,22,11,51,17.20
2015,05,22,11,52,17.10
2015,05,22,11,53,17.00
2015,05,22,11,54,17.00
2015,05,22,11,55,16.90
2015,05,22,11,56,16.90
2015,05,22,11,57,16.90
2015,05,22,11,58,16.90
2015,05,22,11,59,16.90
2015,05,22,12,00,17.00
2015,05,22,12,01,17.00
2015,05,22,12,02,17.00
2015,05,22,12,03,17.00
2015,05,22,12,04,17.00
2015,05,22,12,05,17.10
2015,05,22,12,06,17.10
2015,05,22,12,07,17.20
2015,05,22,12,08,17.20
2015,05,22,12,09,17.30
2015,05,22,12,10,17.40
2015,05,22,12,11,17.50
2015,05,22,12,12,17.50
2015,05,22,12,13,17.60
2015,05,22,12,14,17.70
2015,05,22,12,15,17.70
2015,05,22,12,16,17.70
2015,05,22,12,17,17.70
2015,05,22,12,18,17.70
2015,05,22,12,19,17.80
2015,05,22,12,20,17.80
2015,05,22,12,21,17.80
2015,05,22,12,22,17.80
2015,05,22,12,23,17.80
2015,05,22,12,24,17.90
2015,05,22,12,25,18.00
2015,05,22,12,26,18.10
2015,05,22,12,27,18.20
2015,05,22,12,28,18.30
2015,05,22,12,29,18.30
2015,05,22,12,30,18.30
2015,05,22,12,31,18.30
2015,05,22,12,32,18.40
2015,05,22,12,33,18.40
2015,05,22,12,34,18.40
2015,05,22,12,35,18.40
2015,05,22,12,36,18.50
2015,05,22,12,37,18.60
2015,05,22,12,38,18.50
2015,05,22,12,39,18.50
2015,05,22,12,40,18.40
2015,05,22,12,41,18.40
2015,05,22,12,42,18.40
2015,05,22,12,43,18.50
2015,05,22,12,44,18.60
2015,05,22,12,45,18.70
2015,05,22,12,46,18.80
2015,05,22,12,47,18.90
2015,05,22,12,48,18.90
2015,05,22,12,49,19.00
2015,05,22,12,50,19.10
2015,05,22,12,51,19.20
2015,05,22,12,52,19.20
2015,05,22,12,53,19.20
2015,05,22,12,54,19.20
2015,05,22,12,55,19.20
2015,05,22,12,56,19.30
2015,05,22,12,57,19.30
2015,05,22,12,58,19.30
2015,05,22,12,59,19.40
2015,05,22,13,00,19.40
2015,05,22,13,01,19.40
2015,05,22,13,02,19.50
2015,05,22,13,03,19.60
2015,05,22,13,04,19.60
2015,05,22,13,05,19.60
2015,05,22,13,06,19.50
2015,05,22,13,07,19.50
2015,05,22,13,08,19.60
2015,05,22,13,09,19.70
2015,05,22,13,10,19.80
2015,05,22,13,11,19.70
2015,05,22,13,12,19.70
2015,05,22,13,13,19.70
2015,05,22,13,14,19.60
2015,05,22,13,15,19.60
2015,05,22,13,16,19.60
2015,05,22,13,17,19.70
2015,05,22,13,18,19.80
2015,05,22,13,19,19.80
2015,05,22,13,20,19.90
2015,05,22,13,21,19.90
2015,05,22,13,22,19.90
2015,05,22,13,23,19.90
2015,05,22,13,24,19.80
2015,05,22,13,25,19.80
2015,05,22,13,26,19.80
2015,05,22,13,27,19.80
2015,05,22,13,28,19.80
2015,05,22,13,29,19.80
2015,05,22,13,30,19.80
2015,05,22,13,31,19.80
2015,05,22,13,32,19.80
2015,05,22,13,33,19.80
2015,05,22,13,34,19.80
2015,05,22,13,35,19.90
2015,05,22,13,36,20.00
2015,05,22,13,37,20.20
2015,05,22,13,38,20.30
2015,05,22,13,39,20.30
2015,05,22,13,40,20.30
2015,05,22,13,41,20.20
2015,05,22,13,42,20.20
2015,05,22,13,43,20.20
2015,05,22,13,44,20.30
2015,05,22,13,45,20.40
2015,05,22,13,46,20.40
2015,05,22,13,47,20.50
2015,05,22,13,48,20.50
2015,05,22,13,49,20.60
2015,05,22,13,50,20.60
2015,05,22,13,51,20.70
2015,05,22,13,52,20.80
2015,05,22,13,53,20.80
2015,05,22,13,54,20.80
2015,05,22,13,55,20.90
2015,05,22,13,56,20.90
2015,05,22,13,57,20.90
2015,05,22,13,58,20.80
2015,05,22,13,59,20.80
2015,05,22,14,00,20.80
2015,05,22,14,01,20.90
2015,05,22,14,02,20.90
2015,05,22,14,03,21.00
2015,05,22,14,04,21.10
2015,05,22,14,05,21.00
2015,05,22,14,06,20.90
2015,05,22,14,07,20.90
2015,05,22,14,08,20.90
2015,05,22,14,09,20.90
2015,05,22,14,10,21.00
2015,05,22,14,11,21.00
2015,05,22,14,12,20.90
2015,05,22,14,13,20.80
2015,05,22,14,14,20.70
2015,05,22,14,15,20.70
2015,05,22,14,16,20.70
2015,05,22,14,17,20.70
2015,05,22,14,18,20.80
2015,05,22,14,19,20.90
2015,05,22,14,20,21.00
2015,05,22,14,21,21.10
2015,05,22,14,22,21.20
2015,05,22,14,23,21.20
2015,05,22,14,24,21.10
2015,05,22,14,25,21.10
2015,05,22,14,26,21.00
2015,05,22,14,27,20.90
2015,05,22,14,28,20.90
2015,05,22,14,29,21.00
2015,05,22,14,30,21.00
2015,05,22,14,31,21.10
2015,05,22,14,32,21.20
2015,05,22,14,33,21.30
2015,05,22,14,34,21.50
2015,05,22,14,35,21.50
2015,05,22,14,36,21.50
2015,05,22,14,37,21.40
2015,05,22,14,38,21.40
2015,05,22,14,39,21.40
2015,05,22,14,40,21.40
2015,05,22,14,41,21.50
2015,05,22,14,42,21.50
2015,05,22,14,43,21.60
2015,05,22,14,44,21.60
2015,05,22,14,45,21.60
2015,05,22,14,46,21.50
2015,05,22,14,47,21.40
2015,05,22,14,48,21.40
2015,05,22,14,49,21.30
2015,05,22,14,50,21.20
2015,05,22,14,51,21.10
2015,05,22,14,52,21.20
2015,05,22,14,53,21.20
2015,05,22,14,54,21.20
2015,05,22,14,55,21.30
2015,05,22,14,56,21.40
2015,05,22,14,57,21.50
2015,05,22,14,58,21.60
2015,05,22,14,59,21.70
2015,05,22,15,00,21.70
2015,05,22,15,01,21.80
2015,05,22,15,02,21.70
2015,05,22,15,03,21.60
2015,05,22,15,04,21.60
2015,05,22,15,05,21.50
2015,05,22,15,06,21.50
2015,05,22,15,07,21.50
2015,05,22,15,08,21.60
2015,05,22,15,09,21.70
2015,05,22,15,10,21.80
2015,05,22,15,11,21.80
2015,05,22,15,12,21.80
2015,05,22,15,13,21.90
2015,05,22,15,14,21.90
2015,05,22,15,15,21.90
2015,05,22,15,16,22.00
2015,05,22,15,17,22.00
2015,05,22,15,18,22.00
2015,05,22,15,19,22.10
2015,05,22,15,20,22.10
2015,05,22,15,21,22.10
2015,05,22,15,22,22.10
2015,05,22,15,23,22.10
2015,05,22,15,24,22.10
2015,05,22,15,25,22.00
2015,05,22,15,26,22.00
2015,05,22,15,27,21.90
2015,05,22,15,28,21.90
2015,05,22,15,29,21.90
2015,05,22,15,30,21.80
2015,05,22,15,31,21.70
2015,05,22,15,32,21.70
2015,05,22,15,33,21.70
2015,05,22,15,34,21.70
2015,05,22,15,35,21.60
2015,05,22,15,36,21.50
2015,05,22,15,37,21.50
2015,05,22,15,38,21.40
2015,05,22,15,39,21.30
2015,05,22,15,40,21.30
2015,05,22,15,41,21.30
2015,05,22,15,42,21.20
2015,05,22,15,43,21.20
2015,05,22,15,44,21.20
2015,05,22,15,45,21.20
2015,05,22,15,46,21.20
2015,05,22,15,47,21.20
2015,05,22,15,48,21.20
2015,05,22,15,49,21.20
2015,05,22,15,50,21.10
2015,05,22,15,51,21.10
2015,05,22,15,52,21.00
2015,05,22,15,53,20.90
2015,05,22,15,54,20.90
2015,05,22,15,55,20.90
2015,05,22,15,56,20.80
2015,05,22,15,57,20.80
2015,05,22,15,58,20.80
2015,05,22,15,59,20.80
2015,05,22,16,00,20.70
2015,05,22,16,01,20.70
2015,05,22,16,02,20.70
2015,05,22,16,03,20.60
2015,05,22,16,04,20.60
2015,05,22,16,05,20.60
2015,05,22,16,06,20.50
2015,05,22,16,07,20.50
2015,05,22,16,08,20.50
2015,05,22,16,09,20.40
2015,05,22,16,10,20.40
2015,05,22,16,11,20.30
2015,05,22,16,12,20.30
2015,05,22,16,13,20.20
2015,05,22,16,14,20.20
2015,05,22,16,15,20.20
2015,05,22,16,16,20.10
2015,05,22,16,17,20.10
2015,05,22,16,18,20.00
2015,05,22,16,19,20.00
2015,05,22,16,20,20.00
2015,05,22,16,21,20.00
2015,05,22,16,22,20.00
2015,05,22,16,23,19.90
2015,05,22,16,24,19.90
2015,05,22,16,25,19.90
2015,05,22,16,26,19.90
2015,05,22,16,27,19.90
2015,05,22,16,28,19.80
2015,05,22,16,29,19.80
2015,05,22,16,30,19.80
2015,05,22,16,31,19.80
2015,05,22,16,32,19.80
2015,05,22,16,33,19.80
2015,05,22,16,34,19.80
2015,05,22,16,35,19.80
2015,05,22,16,36,19.80
2015,05,22,16,37,19.70
2015,05,22,16,38,19.70
2015,05,22,16,39,19.70
2015,05,22,16,40,19.70
2015,05,22,16,41,19.70
2015,05,22,16,42,19.70
2015,05,22,16,43,19.70
2015,05,22,16,44,19.60
2015,05,22,16,45,19.60
2015,05,22,16,46,19.60
2015,05,22,16,47,19.60
2015,05,22,16,48,19.60
2015,05,22,16,49,19.60
2015,05,22,16,50,19.60
2015,05,22,16,51,19.60
2015,05,22,16,52,19.60
2015,05,22,16,53,19.60
2015,05,22,16,54,19.50
2015,05,22,16,55,19.50
2015,05,22,16,56,19.50
2015,05,22,16,57,19.50
2015,05,22,16,58,19.40
2015,05,22,16,59,19.40
2015,05,22,17,00,19.40
2015,05,22,17,01,19.40
2015,05,22,17,02,19.30
2015,05,22,17,03,19.30
2015,05,22,17,04,19.30
2015,05,22,17,05,19.30
2015,05,22,17,06,19.20
2015,05,22,17,07,19.20
2015,05,22,17,08,19.20
2015,05,22,17,09,19.20
2015,05,22,17,10,19.20
2015,05,22,17,11,19.10
2015,05,22,17,12,19.10
2015,05,22,17,13,19.10
2015,05,22,17,14,19.10
2015,05,22,17,15,19.10
2015,05,22,17,16,19.10
2015,05,22,17,17,19.10
2015,05,22,17,18,19.10
2015,05,22,17,19,19.10
2015,05,22,17,20,19.10
2015,05,22,17,21,19.00
2015,05,22,17,22,19.00
2015,05,22,17,23,19.00
2015,05,22,17,24,19.00
2015,05,22,17,25,19.00
2015,05,22,17,26,19.00
2015,05,22,17,27,19.00
2015,05,22,17,28,19.00
2015,05,22,17,29,19.00
2015,05,22,17,30,19.00
2015,05,22,17,31,19.00
2015,05,22,17,32,19.00
2015,05,22,17,33,18.90
2015,05,22,17,34,19.00
2015,05,22,17,35,19.00
2015,05,22,17,36,19.00
2015,05,22,17,37,19.00
2015,05,22,17,38,19.00
2015,05,22,17,39,19.10
2015,05,22,17,40,19.10
2015,05,22,17,41,19.10
2015,05,22,17,42,19.10
2015,05,22,17,43,19.10
2015,05,22,17,44,19.10
2015,05,22,17,45,19.10
2015,05,22,17,46,19.20
2015,05,22,17,47,19.20
2015,05,22,17,48,19.20
2015,05,22,17,49,19.20
2015,05,22,17,50,19.20
2015,05,22,17,51,19.10
2015,05,22,17,52,19.10
2015,05,22,17,53,19.10
2015,05,22,17,54,19.10
2015,05,22,17,55,19.10
2015,05,22,17,56,19.10
2015,05,22,17,57,19.00
2015,05,22,17,58,19.00
2015,05,22,17,59,19.00
2015,05,22,18,00,18.90
2015,05,22,18,01,18.90
2015,05,22,18,02,18.90
2015,05,22,18,03,18.90
2015,05,22,18,04,18.90
2015,05,22,18,05,18.90
2015,05,22,18,06,18.80
2015,05,22,18,07,18.80
2015,05,22,18,08,18.80
2015,05,22,18,09,18.90
2015,05,22,18,10,18.90
2015,05,22,18,11,18.90
2015,05,22,18,12,18.90
2015,05,22,18,13,18.90
2015,05,22,18,14,18.90
2015,05,22,18,15,18.90
2015,05,22,18,16,18.90
2015,05,22,18,17,18.90